This is the latest recevied weather packets stored in our database for station/object CE1RLP-31. If no packets are shown the sender has not sent any weather packets the latest 10 day(s).
| Time | Temp. | Humidity | Pressure | Rain* | Wind** | Luminosity | Snow |
|---|---|---|---|---|---|---|---|
| 1778239372 | -6.67° C | 15% | 1085.2 hPa | - | - | - | - |
| 1778238472 | 4.44° C | 15% | 1097.2 hPa | - | - | - | - |
| 1778237572 | 4.44° C | 16% | 1097.2 hPa | - | - | - | - |
| 1778236672 | 4.44° C | 17% | 1097.2 hPa | - | - | - | - |
| 1778235772 | 4.44° C | 21% | 1097.2 hPa | - | - | - | - |
| 1778234872 | 4.44° C | 25% | 1097.1 hPa | - | - | - | - |
| 1778233973 | 4.44° C | 24% | 1097 hPa | - | - | - | - |
| 1778233073 | 4.44° C | 25% | 1097 hPa | - | - | - | - |
| 1778232173 | 4.44° C | 29% | 1097.1 hPa | - | - | - | - |
| 1778231273 | 4.44° C | 31% | 1097 hPa | - | - | - | - |
| 1778230373 | 4.44° C | 32% | 1097 hPa | - | - | - | - |
| 1778229473 | 4.44° C | 34% | 1097.1 hPa | - | - | - | - |
| 1778228573 | 4.44° C | 39% | 1097.2 hPa | - | - | - | - |
| 1778227673 | 4.44° C | 38% | 1097.2 hPa | - | - | - | - |
| 1778226772 | 4.44° C | 37% | 1097.2 hPa | - | - | - | - |
| 1778225872 | 4.44° C | 36% | 1097.1 hPa | - | - | - | - |
| 1778224972 | 4.44° C | 37% | 1097.1 hPa | - | - | - | - |
| 1778224072 | 5° C | 37% | 1097.2 hPa | - | - | - | - |
| 1778223172 | 4.44° C | 37% | 1097.3 hPa | - | - | - | - |
| 1778222272 | 5° C | 36% | 1097.3 hPa | - | - | - | - |
| 1778221372 | 5° C | 37% | 1097.4 hPa | - | - | - | - |
| 1778220472 | 5° C | 37% | 1097.4 hPa | - | - | - | - |
| 1778219572 | 5° C | 35% | 1098 hPa | - | - | - | - |
| 1778218672 | 5° C | 37% | 1097.4 hPa | - | - | - | - |
| 1778217772 | 5° C | 36% | 1097.6 hPa | - | - | - | - |
* Rain since midnight (hover to see other rain measurements)
** Current wind speed in m/s (hover to see current wind gust speed)